| time (UTC) | temp F | wind direction | speed knots | gust knots | rain 1hr in | rain 24hr in | rain mn in | humidity % | barometer mb |
| 20260504173052 | 53 | 0 | 0.0 | 3.5 | 0.00 | 0.29 | 0.22 | 88 | 1012.5 |
| 20260504171548 | 53 | 288 | 0.9 | 2.6 | 0.00 | 0.28 | 0.22 | 88 | 1012.4 |
| 20260504081553 | 52 | 0 | 0.0 | 1.7 | 0.00 | 0.18 | 0.07 | 92 | 1015.1 |
| 20260504044558 | 50 | 0 | 0.0 | 0.0 | 0.00 | 0.11 | 0.00 | 91 | 1015.1 |
| 20260504043055 | 50 | 0 | 0.0 | 0.0 | 0.00 | 0.11 | 0.00 | 91 | 1015.1 |
| 20260504041553 | 50 | 0 | 0.0 | 0.0 | 0.00 | 0.11 | 0.00 | 91 | 1015.1 |
| 20260504034559 | 50 | 0 | 0.0 | 0.0 | 0.00 | 0.11 | 0.00 | 91 | 1015.1 |
| 20260504033125 | 50 | 0 | 0.0 | 0.0 | 0.00 | 0.11 | 0.00 | 91 | 1015.2 |
| 20260504031558 | 50 | 0 | 0.0 | 0.0 | 0.00 | 0.11 | 0.00 | 90 | 1015.3 |
| 20260504030051 | 50 | 0 | 0.0 | 0.0 | 0.00 | 0.11 | 0.00 | 90 | 1015.4 |
| 20260504024550 | 50 | 0 | 0.0 | 0.0 | 0.00 | 0.13 | 0.00 | 90 | 1015.3 |
| 20260504023100 | 50 | 0 | 0.0 | 0.0 | 0.00 | 0.13 | 0.00 | 90 | 1015.4 |
| 20260504021552 | 50 | 0 | 0.0 | 0.0 | 0.00 | 0.13 | 0.00 | 90 | 1015.3 |
| 20260504020057 | 50 | 0 | 0.0 | 0.0 | 0.00 | 0.13 | 0.00 | 90 | 1015.5 |
| 20260504014550 | 50 | 0 | 0.0 | 3.5 | 0.00 | 0.21 | 0.00 | 90 | 1015.6 |
| 20260504013105 | 50 | 0 | 0.9 | 2.6 | 0.00 | 0.21 | 0.00 | 90 | 1015.6 |
| 20260504011551 | 50 | 0 | 0.0 | 0.0 | 0.00 | 0.21 | 0.00 | 90 | 1015.6 |
| 20260504010059 | 50 | 0 | 0.0 | 1.7 | 0.00 | 0.21 | 0.00 | 90 | 1015.6 |
| 20260504004603 | 50 | 0 | 0.0 | 0.0 | 0.00 | 0.29 | 0.00 | 90 | 1015.8 |
| 20260504003045 | 50 | 0 | 0.0 | 0.9 | 0.00 | 0.29 | 0.00 | 89 | 1015.9 |
| 20260504001554 | 50 | 0 | 0.0 | 0.9 | 0.00 | 0.29 | 0.00 | 89 | 1016.0 |
| 20260504000045 | 50 | 0 | 0.0 | 0.9 | 0.00 | 0.29 | 0.00 | 89 | 1015.9 |
| 20260503234547 | 50 | 0 | 0.0 | 2.6 | 0.00 | 0.30 | 0.00 | 89 | 1016.0 |
| 20260503233050 | 50 | 0 | 0.0 | 1.7 | 0.00 | 0.30 | 0.00 | 89 | 1016.2 |
| 20260503231547 | 50 | 0 | 0.0 | 0.0 | 0.00 | 0.30 | 0.00 | 89 | 1016.1 |
| 20260503230052 | 50 | 0 | 0.0 | 0.9 | 0.00 | 0.30 | 0.00 | 89 | 1016.2 |
| 20260503224550 | 50 | 0 | 0.0 | 0.0 | 0.00 | 0.30 | 0.00 | 88 | 1016.3 |
| 20260503223056 | 51 | 0 | 0.0 | 0.9 | 0.00 | 0.30 | 0.00 | 88 | 1016.3 |
| 20260503221555 | 51 | 0 | 0.0 | 0.0 | 0.00 | 0.30 | 0.00 | 87 | 1016.2 |
| 20260503220050 | 51 | 0 | 0.0 | 2.6 | 0.00 | 0.30 | 0.00 | 87 | 1016.3 |
| 20260503214553 | 51 | 0 | 0.0 | 0.9 | 0.00 | 0.30 | 0.30 | 86 | 1016.5 |
| 20260503213105 | 51 | 0 | 0.0 | 1.7 | 0.00 | 0.30 | 0.30 | 85 | 1016.5 |
| 20260503211551 | 51 | 0 | 0.0 | 2.6 | 0.00 | 0.30 | 0.30 | 84 | 1016.4 |
| 20260503210100 | 51 | 0 | 0.0 | 2.6 | 0.00 | 0.30 | 0.30 | 83 | 1016.2 |
| 20260503204611 | 52 | 0 | 0.0 | 0.9 | 0.00 | 0.30 | 0.30 | 83 | 1016.1 |
| 20260503203047 | 52 | 0 | 0.9 | 4.3 | 0.00 | 0.30 | 0.30 | 81 | 1016.2 |
| 20260503201551 | 52 | 0 | 1.7 | 7.0 | 0.03 | 0.30 | 0.30 | 81 | 1016.0 |
| 20260503200058 | 52 | 290 | 1.7 | 8.7 | 0.05 | 0.30 | 0.30 | 82 | 1015.9 |
| 20260503194554 | 52 | 0 | 7.8 | 14.8 | 0.06 | 0.30 | 0.30 | 84 | 1015.8 |
| 20260503193056 | 52 | 267 | 3.5 | 13.0 | 0.06 | 0.30 | 0.30 | 85 | 1015.4 |
| 20260503191552 | 53 | 253 | 2.6 | 16.5 | 0.03 | 0.27 | 0.27 | 85 | 1015.4 |
| 20260503190051 | 53 | 278 | 4.3 | 11.3 | 0.00 | 0.25 | 0.25 | 86 | 1014.7 |
| 20260503184559 | 54 | 308 | 0.9 | 5.2 | 0.00 | 0.24 | 0.24 | 87 | 1014.2 |
| 20260503183113 | 54 | 294 | 1.7 | 7.0 | 0.00 | 0.24 | 0.24 | 87 | 1014.2 |
| 20260503181550 | 54 | 349 | 0.9 | 7.0 | 0.00 | 0.24 | 0.24 | 87 | 1014.3 |
| 20260503180054 | 54 | 263 | 2.6 | 6.1 | 0.00 | 0.24 | 0.24 | 87 | 1014.5 |
| 20260503174550 | 54 | 261 | 1.7 | 6.1 | 0.00 | 0.24 | 0.24 | 88 | 1014.6 |